{"data":{"norad_id":41888,"epoch":"2026-09-20T04:43:34.830624Z","epoch_age_seconds":40556,"freshness":"FRESH","line1":"1 41888U 16078E   26263.19693091  .00026351  00000+0  25740-3 0  9995","line2":"2 41888  34.9432 326.4377 0005090  12.7874 347.2981 15.65127494543843","mean_motion":15.65127494,"eccentricity":0.000509,"inclination_deg":34.9432,"raan_deg":326.4377,"arg_perigee_deg":12.7874,"mean_anomaly_deg":347.2981,"bstar":0.0002574,"rev_number":54384,"period_min":92.005284267276,"perigee_km":369.43584979916,"apogee_km":376.30837707664,"semimajor_km":6751.0091134379,"source":"CELESTRAK","updated_at":"2026-09-20T09:00:33.218881Z"}}